QTR429 OTHH-ESSA

Flight info

Callsign QTR429
Flight time N/A
Altitude 36000
Route ULIKA M430 KSA T503 GADLI/N0473F380 T503 OVANO L768 FIRAS R655 KTN R785 NIKAS L619 VESAR UL619 OSVEL UQ23 OSDAN UQ26 TUDBU Q26 UPAMA DCT RUPUG/N0466F400 DCT ORA DCT NARKA DCT KEKED DCT RAZEC DCT LENOV N133 PENOR DCT TESPO DCT ARMOD/N0475F410 Z228 NILUG
Aircraft A343/H-SDE2E3FGHIJ4J5M1RWXY/LB1D1

Departure

Time 2026-05-07 07:20
Airport Hamad International Airport (OTHH)

Arrival

Time N/A
Airport Stockholm-Arlanda Airport (ESSA)
Time Latitude Longitude Altitude Speed Heading
2026-05-07 06:45 25.26943 51.61311 33 ft 0 kts 293°
2026-05-07 07:06 25.26935 51.61333 34 ft 4 kts 293°
2026-05-07 07:07 25.26925 51.61358 32 ft 1 kts 293°
2026-05-07 07:07 25.26917 51.61382 33 ft 4 kts 276°
2026-05-07 07:07 25.26920 51.61409 32 ft 4 kts 229°
2026-05-07 07:07 25.26940 51.61423 32 ft 4 kts 202°
2026-05-07 07:08 25.26957 51.61430 32 ft 0 kts 202°
2026-05-07 07:10 25.26954 51.61429 34 ft 1 kts 202°
2026-05-07 07:11 25.26931 51.61419 34 ft 5 kts 202°
2026-05-07 07:11 25.26884 51.61398 34 ft 10 kts 202°
2026-05-07 07:11 25.26794 51.61355 34 ft 16 kts 204°
2026-05-07 07:11 25.26691 51.61327 34 ft 15 kts 173°
2026-05-07 07:12 25.26592 51.61365 34 ft 15 kts 159°
2026-05-07 07:12 25.26501 51.61404 34 ft 15 kts 158°
2026-05-07 07:12 25.26405 51.61451 34 ft 13 kts 144°
2026-05-07 07:12 25.26403 51.61533 34 ft 12 kts 69°
2026-05-07 07:13 25.26426 51.61594 34 ft 13 kts 68°
2026-05-07 07:13 25.26444 51.61643 34 ft 13 kts 70°
2026-05-07 07:14 25.26474 51.61736 34 ft 13 kts 70°
2026-05-07 07:14 25.26509 51.61828 34 ft 13 kts 67°
2026-05-07 07:14 25.26535 51.61919 33 ft 10 kts 99°
2026-05-07 07:14 25.26489 51.61952 33 ft 9 kts 157°
2026-05-07 07:15 25.26411 51.61987 34 ft 15 kts 158°
2026-05-07 07:15 25.26315 51.62029 34 ft 15 kts 159°
2026-05-07 07:15 25.26219 51.62072 34 ft 15 kts 158°
2026-05-07 07:15 25.26128 51.62111 34 ft 15 kts 159°
2026-05-07 07:16 25.26106 51.62120 34 ft 15 kts 159°
2026-05-07 07:16 25.26010 51.62163 34 ft 15 kts 158°
2026-05-07 07:16 25.25913 51.62206 34 ft 15 kts 158°
2026-05-07 07:17 25.25815 51.62250 34 ft 15 kts 158°
2026-05-07 07:17 25.25717 51.62294 34 ft 15 kts 158°
2026-05-07 07:17 25.25619 51.62338 33 ft 15 kts 158°
2026-05-07 07:17 25.25618 51.62338 33 ft 15 kts 158°
2026-05-07 07:18 25.25606 51.62344 33 ft 15 kts 158°
2026-05-07 07:18 25.25581 51.62413 33 ft 9 kts 74°
2026-05-07 07:18 25.25607 51.62486 32 ft 11 kts 67°
2026-05-07 07:18 25.25639 51.62570 30 ft 12 kts 67°
2026-05-07 07:19 25.25674 51.62615 30 ft 4 kts
2026-05-07 07:19 25.25715 51.62601 30 ft 12 kts 339°
2026-05-07 07:19 25.25949 51.62498 31 ft 62 kts 338°
2026-05-07 07:19 25.26497 51.62258 31 ft 108 kts 338°
2026-05-07 07:20 25.27319 51.61897 30 ft 145 kts 338°
2026-05-07 07:20 25.28349 51.61435 117 ft 168 kts 338°
2026-05-07 07:20 25.29419 51.60948 628 ft 167 kts 339°
2026-05-07 07:20 25.30511 51.60464 1022 ft 171 kts 340°
2026-05-07 07:21 25.31659 51.59975 1356 ft 183 kts 341°
2026-05-07 07:21 25.32901 51.59453 1677 ft 198 kts 341°
2026-05-07 07:21 25.34267 51.59063 1931 ft 209 kts
2026-05-07 07:21 25.35647 51.59569 2286 ft 219 kts 26°
2026-05-07 07:22 25.37082 51.60261 2746 ft 228 kts 24°
2026-05-07 07:22 25.38653 51.60823 3159 ft 245 kts 10°
2026-05-07 07:22 25.40381 51.60755 3572 ft 260 kts 347°
2026-05-07 07:22 25.41982 51.59767 4088 ft 271 kts 319°
2026-05-07 07:23 25.43321 51.58271 4723 ft 276 kts 310°
2026-05-07 07:23 25.44246 51.56397 5305 ft 283 kts 287°
2026-05-07 07:23 25.44308 51.54222 5869 ft 290 kts 255°
2026-05-07 07:23 25.43318 51.52294 6449 ft 292 kts 223°
2026-05-07 07:24 25.41608 51.51146 6780 ft 289 kts 194°
2026-05-07 07:24 25.39610 51.50872 7196 ft 292 kts 181°
2026-05-07 07:24 25.37580 51.50727 7858 ft 293 kts 183°
2026-05-07 07:24 25.35546 51.50513 8560 ft 294 kts 185°
2026-05-07 07:25 25.31494 51.49718 9841 ft 302 kts 198°
2026-05-07 07:25 25.29545 51.48764 10293 ft 313 kts 207°
2026-05-07 07:25 25.27598 51.47554 10573 ft 329 kts 210°
2026-05-07 07:26 25.25583 51.46228 10849 ft 344 kts 210°
2026-05-07 07:26 25.23495 51.44834 11105 ft 358 kts 211°
2026-05-07 07:26 25.21328 51.43379 11356 ft 371 kts 211°
2026-05-07 07:26 25.19085 51.41870 11649 ft 382 kts 211°